CubeBel-1
1 43666U 18083E 22335.87473266 .00011708 00000-0 44763-3 0 9997
2 43666 97.4062 2.8814 0013940 100.7881 318.4322 15.26663058226993
Changshagaoxin
1 43669U 18083H 22335.91777872 .00009628 00000-0 38996-3 0 9994
2 43669 97.4018 358.3783 0010786 99.2755 22.1817 15.24826836226797
Ten-Koh
1 43677U 18084G 22335.34749190 .00001208 00000-0 12592-3 0 9993
2 43677 97.9867 107.2034 0016880 82.4948 277.8187 14.91622589222553
PO-101
1 43678U 18084H 22335.87627769 .00001062 00000-0 10910-3 0 9999
2 43678 97.9938 111.3865 0011223 93.8054 266.4471 14.92515781222827
IRVINE 01
1 43693U 18088D 22335.86836086 .00111470 00000-0 14273-2 0 9993
2 43693 85.0223 196.0183 0004490 146.1191 214.0358 15.58803198226073
QO-100
1 43700U 18090A 22335.53081464 .00000146 00000-0 00000-0 0 9999
2 43700 0.0175 305.2843 0001249 330.6807 11.3063 1.00272159 14700
Reaktor Hello World
1 43743U 18096AA 22335.75345158 .00018839 00000-0 48702-3 0 9991
2 43743 97.3409 55.3056 0013679 172.9209 187.2233 15.39056071223645
MinXSS-2
1 43758U 18099A 22335.66137617 .00003654 00000-0 30987-3 0 9994
2 43758 97.6058 39.4800 0016192 68.2229 292.0715 14.98458894218137
AO-95
1 43770U 18099N 22335.64726717 .00002771 00000-0 24304-3 0 9996
2 43770 97.6014 37.5652 0015109 77.4929 282.7983 14.97353874218025
RANGE-B
1 43772U 18099Q 22335.15816044 .00002635 00000-0 22604-3 0 9997
2 43772 97.6149 39.1972 0014530 64.0304 296.2414 14.98272669217981
RANGE-A
1 43773U 18099R 22335.42593772 .00001422 00000-0 12927-3 0 9998
2 43773 97.5938 35.9389 0014249 65.5498 294.7209 14.96699932217967
MOVE-II
1 43780U 18099Y 22335.63397262 .00004256 00000-0 35287-3 0 9997
2 43780 97.6056 39.1578 0012280 68.8650 291.3885 14.99286884218091
SNUSat 2
1 43782U 18099AA 22335.81247602 .00002146 00000-0 18889-3 0 9996
2 43782 97.6035 38.2292 0013733 63.1311 297.1313 14.97465780218079
SnugLite
1 43784U 18099AC 22335.75522353 .00002047 00000-0 17887-3 0 9997
2 43784 97.5988 37.7976 0015591 68.4299 291.8583 14.97766613218098
ITASat 1
1 43786U 18099AE 22335.42970225 .00001685 00000-0 14958-3 0 9991
2 43786 97.6047 38.3543 0015654 69.5957 290.6945 14.97377107218036
EAGLET 1
1 43790U 18099AJ 22335.64665104 .00001718 00000-0 15245-3 0 9994
2 43790 97.6037 39.1082 0014015 73.1885 287.0873 14.97399912217800
ESEO
1 43792U 18099AL 22335.45610012 .00001434 00000-0 13069-3 0 9990
2 43792 97.5991 37.8688 0014497 72.4064 287.8740 14.96587621217808
CSIM
1 43793U 18099AM 22335.26628920 .00005087 00000-0 41346-3 0 9994
2 43793 97.6080 39.8693 0015683 69.1286 291.1615 14.99929594217872
Astrocast 0.1
1 43798U 18099AS 22335.64109454 .00003560 00000-0 29899-3 0 9990
2 43798 97.6049 39.8818 0011748 48.5264 311.6966 14.98897111218142
JO-97
1 43803U 18099AX 22335.64959222 .00003058 00000-0 26267-3 0 9991
2 43803 97.6002 38.3890 0015391 69.6060 290.6815 14.98082828218092
Suomi 100
1 43804U 18099AY 22335.81449285 .00002317 00000-0 20095-3 0 9994
2 43804 97.6019 38.4328 0016130 67.7893 292.5038 14.97939009218126
Al Farabi 2
1 43805U 18099AZ 22335.85832467 .00003843 00000-0 32288-3 0 9999
2 43805 97.6012 39.1788 0015456 69.7556 290.5307 14.98794808218164
CHOMPTT
1 43855U 18104G 22335.34155675 .00011416 00000-0 38239-3 0 9991
2 43855 85.0318 299.6460 0013479 351.7307 8.3715 15.30707682220229
ISAT
1 43879U 18111D 22335.67042627 .00003600 00000-0 30022-3 0 9991
2 43879 97.6516 238.2347 0013796 117.4861 242.7766 14.99149739214715
UWE-4
1 43880U 18111E 22335.19197959 .00002873 00000-0 24016-3 0 9996
2 43880 97.6558 238.5718 0011547 118.7408 241.4976 14.99238235212673
Sparrow
1 43881U 18111F 22335.52257519 .00003147 00000-0 26101-3 0 9995
2 43881 97.6573 239.1991 0011229 114.4516 245.7879 14.99474913214734
Lume 1
1 43908U 18111AJ 22335.13378983 .00012433 00000-0 37569-3 0 9999
2 43908 97.1667 217.8301 0015673 190.4542 169.6378 15.34248408218911
FO-99
1 43937U 19003F 22335.30036387 .00015956 00000-0 46223-3 0 9990
2 43937 97.1142 2.4792 0016159 276.7369 83.2037 15.35513201215533
MYSat 1
1 44045U 18092F 22335.34880730 .00451542 90436-4 12820-2 0 9997
2 44045 51.6177 305.6590 0009684 71.3681 288.8377 15.92710277214020
AstroCast 0.2
1 44083U 19018F 22335.41123326 .00012901 00000-0 42863-3 0 9994
2 44083 97.3010 31.3375 0007251 245.4379 114.6107 15.31304661203995
AISTechSat 3
1 44103U 19018AB 22335.11463191 .00010073 00000-0 33949-3 0 9994
2 44103 97.2873 31.1897 0009492 261.8411 98.1754 15.30887411204116
AISat 1
1 44104U 19018AC 22335.19409616 .00009602 00000-0 24632-3 0 9990
2 44104 97.3872 59.1854 0047279 254.3907 105.2117 15.38392552205201
Prox-1
1 44339U 19036A 22335.81776938 .00003129 00000-0 64610-3 0 9991
2 44339 23.9996 216.0779 0010508 250.8319 109.1036 14.56238839182760
Oculus-ASR
1 44348U 19036K 22335.48488677 .00106551 -34575-5 60429-3 0 9991
2 44348 28.4937 101.5257 0160387 56.7001 304.8854 15.61413126190432
NO-104
1 44354U 19036R 22335.61839291 .00126090 -21435-5 62903-3 0 9995
2 44354 28.5190 80.7647 0146972 86.1853 275.5544 15.66174665190659
Move-IIb
1 44398U 19038N 22335.90045080 .00015153 00000-0 63515-3 0 9998
2 44398 97.6470 307.4525 0016916 271.3386 88.5914 15.23484647188480
SONATE
1 44400U 19038Q 22333.00823403 .00005408 00000-0 28008-3 0 9994
2 44400 97.6627 302.6183 0020780 288.0775 71.8194 15.16455170187852
BeeSat 9
1 44412U 19038AC 22335.86180203 .00010882 00000-0 50501-3 0 9992
2 44412 97.6564 306.8909 0016622 277.7315 82.2032 15.20095627188098
JAISAT-1
1 44419U 19038F 22335.40104740 .00009928 00000-0 45542-3 0 9999
2 44419 97.6565 307.3876 0015614 276.1578 83.7878 15.20535934188396
Taurus 1
1 44530U 19059C 22335.78391584 .00002153 00000-0 59343-3 0 9998
2 44530 98.5513 76.0167 0012198 335.5244 24.5382 14.47848295170052
Duchifat 3
1 44854U 19089C 22335.82434103 .00003435 00000-0 25999-3 0 9994
2 44854 36.9645 187.2288 0005923 147.4808 320.0575 15.02442766163107
OPS-SAT
1 44878U 19092F 22335.76953078 .00011146 00000-0 46854-3 0 9995
2 44878 97.4774 158.6697 0012676 113.2898 246.9674 15.23514820163635
TO-108
1 44881U 19093C 22335.77204793 .00000563 00000-0 77580-4 0 9996
2 44881 97.8809 52.4874 0015189 7.0058 353.1358 14.81949479159551
FloripaSat 1
1 44885U 19093G 22335.76094146 .00001936 00000-0 23947-3 0 9990
2 44885 97.8864 54.2625 0014326 11.8591 348.2973 14.83845474159658
RS-44
1 44909U 19096E 22335.65662086 .00000035 00000-0 10529-3 0 9993
2 44909 82.5191 119.2055 0216453 288.8552 68.9189 12.79716827136894
BY70-2
1 45857U 20042B 22335.79709218 .00007198 00000-0 90655-3 0 9998
2 45857 97.9446 51.1947 0008842 292.4931 67.5361 14.82284272130225
UPMSat 2
1 46276U 20061E 22335.58492946 .00004333 00000-0 20651-3 0 9996
2 46276 97.3745 42.5679 0000924 33.7597 326.3696 15.19632175124242
AmicalSat
1 46287U 20061R 22335.41698945 .00005823 00000-0 31875-3 0 9992
2 46287 97.4287 41.1865 0003726 73.4026 286.7615 15.14608442123726
